LKPD Weather Reports


time (UTC)temp
F
wind
direction
speed
knots
gust
knots
rain 1hr
in
rain 24hr
in
rain mn
in
humidity
%
barometer
mb
20260506143224 68 350 2.6 0.0 0.00 0.00 0.00 60 1005.0
20260506141958 68 340 4.3 0.0 0.00 0.00 0.00 60
20260506141808 68 20 2.6 0.0 0.00 0.00 0.00 56 1005.0
20260506140225 68 310 5.2 0.0 0.00 0.00 0.00 56 1005.0
20260506133224 68 170 7.0 0.0 0.00 0.00 0.00 52 1005.0
20260506132307 70 0 5.2 0.0 0.00 0.00 0.00 49 1005.0
20260506131958 73 310 4.3 0.0 0.00 0.00 0.00 38
20260506131809 72 320 2.6 0.0 0.00 0.00 0.00 43 1005.0
20260506130219 72 260 6.1 0.0 0.00 0.00 0.00 40 1006.0
20260506123216 72 180 5.2 0.0 0.00 0.00 0.00 40 1006.0
20260506121957 75 210 4.3 0.0 0.00 0.00 0.00 36
20260506120225 72 0 4.3 0.0 0.00 0.00 0.00 43 1006.0
20260506113216 72 0 4.3 0.0 0.00 0.00 0.00 43 1006.0
20260506111943 72 190 4.3 0.0 0.00 0.00 0.00 40
20260506110218 68 260 6.1 0.0 0.00 0.00 0.00 49 1007.0
20260506103216 70 240 8.7 0.0 0.00 0.00 0.00 49 1007.0
20260506102144 70 240 10.4 0.0 0.00 0.00 0.00 46
20260506100221 68 220 11.3 0.0 0.00 0.00 0.00 49 1007.0
20260506093217 68 260 11.3 0.0 0.00 0.00 0.00 45 1007.0
20260506091943 68 260 12.2 0.0 0.00 0.00 0.00 45
20260506090220 66 230 12.2 0.0 0.00 0.00 0.00 52 1007.0
20260506083216 64 250 12.2 0.0 0.00 0.00 0.00 55 1007.0
20260506081941 64 250 12.2 0.0 0.00 0.00 0.00 55
20260506080227 66 250 11.3 0.0 0.00 0.00 0.00 55 1007.0
20260506073216 63 260 13.0 0.0 0.00 0.00 0.00 63 1007.0
20260506071943 63 260 12.2 0.0 0.00 0.00 0.00 63
20260506070226 63 250 11.3 0.0 0.00 0.00 0.00 63 1007.0
20260506061944 61 250 10.4 0.0 0.00 0.00 0.00 67
20260506060219 61 250 8.7 0.0 0.00 0.00 0.00 67 1007.0
20260506050225 59 250 7.0 0.0 0.00 0.00 0.00 77 1007.0
20260506043210 54 0 0.0 0.0 0.00 0.00 0.00 93 1006.0
20260506042142 55 240 1.7 0.0 0.00 0.00 0.00 87
20260506040220 54 260 1.7 0.0 0.00 0.00 0.00 87 1006.0
20260506033209 55 270 5.2 0.0 0.00 0.00 0.00 87 1006.0
20260506031943 57 260 6.1 0.0 0.00 0.00 0.00 82
20260506030219 55 250 5.2 0.0 0.00 0.00 0.00 87 1006.0
20260506023209 55 250 6.1 0.0 0.00 0.00 0.00 87 1006.0
20260506021943 55 220 4.3 0.0 0.00 0.00 0.00 87
20260506020221 55 220 2.6 0.0 0.00 0.00 0.00 87 1005.0
20260506013210 57 240 6.1 0.0 0.00 0.00 0.00 87 1006.0
20260506012044 57 240 7.8 0.0 0.00 0.00 0.00 87
20260506010219 57 240 7.8 0.0 0.00 0.00 0.00 82 1006.0
20260506003216 59 300 10.4 0.0 0.00 0.00 0.00 77 1006.0
20260506001941 59 300 12.2 0.0 0.00 0.00 0.00 77
20260506000220 59 290 12.2 0.0 0.00 0.00 0.00 82 1006.0
20260505233209 63 280 14.8 0.0 0.00 0.00 0.00 67 1006.0
20260505231941 63 220 4.3 0.0 0.00 0.00 0.00 59
20260505230226 63 230 4.3 0.0 0.00 0.00 0.00 59 1005.0
20260505223209 61 110 5.2 0.0 0.00 0.00 0.00 67 1004.0
20260505221941 63 110 6.1 0.0 0.00 0.00 0.00 59
20260505220221 61 110 6.1 0.0 0.00 0.00 0.00 63 1004.0
20260505213209 63 90 4.3 0.0 0.00 0.00 0.00 67 1004.0
20260505212032 63 90 4.3 0.0 0.00 0.00 0.00 63
20260505210232 61 90 2.6 0.0 0.00 0.00 0.00 72 1004.0
20260505203217 61 0 1.7 0.0 0.00 0.00 0.00 72 1004.0
20260505201958 63 140 1.7 0.0 0.00 0.00 0.00 67
20260505200240 63 120 2.6 0.0 0.00 0.00 0.00 67 1004.0
20260505193217 61 110 4.3 0.0 0.00 0.00 0.00 72 1004.0
20260505192026 64 100 1.7 0.0 0.00 0.00 0.00 63
20260505190232 64 0 1.7 0.0 0.00 0.00 0.00 63 1004.0
20260505183217 64 280 2.6 0.0 0.00 0.00 0.00 63 1004.0
20260505181959 66 290 7.8 0.0 0.00 0.00 0.00 59
20260505180219 66 280 7.8 0.0 0.00 0.00 0.00 59 1004.0
20260505173224 72 250 11.3 0.0 0.00 0.00 0.00 46 1004.0
20260505171942 73 140 4.3 0.0 0.00 0.00 0.00 35
20260505170219 73 0 1.7 0.0 0.00 0.00 0.00 38 1004.0
20260505163224 75 150 6.1 0.0 0.00 0.00 0.00 36 1004.0
20260505162058 77 140 7.8 0.0 0.00 0.00 0.00 31
20260505160219 75 130 8.7 0.0 0.00 0.00 0.00 38 1004.0
20260505153224 79 110 2.6 0.0 0.00 0.00 0.00 29 1004.0
20260505151957 81 90 6.1 0.0 0.00 0.00 0.00 28
20260505150226 79 100 6.1 0.0 0.00 0.00 0.00 31 1004.0